Farmingdale, NY

2:42 PM EST on February 23, 2017 (GMT -0500)
Republic

Weather History for KFRG - March, 2013

Change the Weather History Date:

Sunday, March 10, 2013

  Actual Average Record
Temperature  
Mean Temperature 36 °F -  
Max Temperature 43 °F 43 °F 71 °F (2016)
Min Temperature 30 °F 29 °F 14 °F (2005)
Degree Days  
Heating Degree Days 28    
Moisture  
Dew Point 31 °F    
Average Humidity 80    
Maximum Humidity 92    
Minimum Humidity 67    
Precipitation  
Precipitation 0.00 in - - ()
Sea Level Pressure  
Sea Level Pressure 30.36 in    
Wind  
Wind Speed 4 mph (SE)    
Max Wind Speed 9 mph    
Max Gust Speed -    
Visibility 10 miles    
Events      
Averages and records for this station are not official NWS values.
T = Trace of Precipitation, MM = Missing Value Source: NWS Daily Summary

Daily Weather History Graph

Daily Weather History Graph

Search for Another Location

Airport or City:

Trip Planner

Search our weather history database for the weather conditions in past years. The results will help you decide how hot, cold, wet, or windy it might be!

Date:

Astronomy

Mar. 10, 2013 Rise Set
Actual Time 7:13 AM EDT 6:55 PM EDT
Civil Twilight 6:45 AM EDT 7:22 PM EDT
Nautical Twilight 6:14 AM EDT 7:54 PM EDT
Astronomical Twilight 5:42 AM EDT 8:26 PM EDT
Moon 6:11 AM EDT (3/10) 6:00 PM EDT (3/10)
Length of Visible Light 12h 36m
Length of Day
11h 42m
Waning Crescent, 2% of the Moon is Illuminated
Mar 10
Waning Crescent
Mar 11
New
Mar 19
First Quarter
Mar 27
Full
Apr 3
Last Quarter

Hourly Weather History & Observations

Time (EDT) Temp. Windchill Dew Point Humidity Pressure Visibility Wind Dir Wind Speed Gust Speed Precip Events Conditions
12:53 AM 33.1 °F - 30.0 °F 89% 30.35 in 8.0 mi Calm Calm - N/A   Clear
1:53 AM 30.9 °F - 28.0 °F 89% 30.34 in 10.0 mi Calm Calm - N/A   Clear
3:53 AM 30.0 °F 26.5 °F 28.0 °F 92% 30.34 in 10.0 mi NE 3.5 mph - N/A   Clear
4:53 AM 30.9 °F - 27.0 °F 85% 30.34 in 10.0 mi Calm Calm - N/A   Clear
5:53 AM 30.0 °F 24.1 °F 27.0 °F 88% 30.36 in 10.0 mi NE 5.8 mph - N/A   Clear
6:53 AM 30.9 °F 26.2 °F 28.0 °F 89% 30.37 in 7.0 mi North 4.6 mph - N/A   Clear
8:53 AM 37.0 °F 31.6 °F 32.0 °F 82% 30.39 in 10.0 mi NE 6.9 mph - N/A   Clear
9:53 AM 37.9 °F 32.1 °F 32.0 °F 79% 30.40 in 10.0 mi East 8.1 mph - N/A   Clear
10:53 AM 41.0 °F 36.4 °F 30.9 °F 67% 30.39 in 10.0 mi East 6.9 mph - N/A   Clear
11:53 AM 42.1 °F 37.7 °F 32.0 °F 67% 30.39 in 10.0 mi SSE 6.9 mph - N/A   Clear
12:53 PM 42.1 °F 38.4 °F 32.0 °F 67% 30.38 in 10.0 mi SE 5.8 mph - N/A   Clear
1:53 PM 43.0 °F 38.8 °F 33.1 °F 68% 30.37 in 10.0 mi SE 6.9 mph - N/A   Clear
2:53 PM 43.0 °F 38.8 °F 33.1 °F 68% 30.35 in 10.0 mi Variable 6.9 mph - N/A   Clear
3:53 PM 43.0 °F 38.2 °F 33.1 °F 68% 30.35 in 10.0 mi SSE 8.1 mph - N/A   Clear
4:53 PM 39.9 °F 33.9 °F 32.0 °F 73% 30.35 in 10.0 mi SE 9.2 mph - N/A   Clear
5:53 PM 39.0 °F 32.8 °F 32.0 °F 76% 30.34 in 10.0 mi SE 9.2 mph - N/A   Clear
6:53 PM 37.0 °F 31.0 °F 32.0 °F 82% 30.34 in 10.0 mi SSE 8.1 mph - N/A   Scattered Clouds
7:07 PM 37.4 °F 31.4 °F 32.0 °F 81% 30.35 in 10.0 mi SSE 8.1 mph - N/A   Mostly Cloudy
7:25 PM 37.4 °F 32.1 °F 32.0 °F 81% 30.35 in 10.0 mi SSE 6.9 mph - N/A   Scattered Clouds
7:53 PM 36.0 °F 29.6 °F 32.0 °F 86% 30.35 in 10.0 mi SSE 8.1 mph - N/A   Clear
8:53 PM 36.0 °F 31.1 °F 32.0 °F 86% 30.35 in 10.0 mi South 5.8 mph - N/A   Partly Cloudy
9:53 PM 37.0 °F 32.4 °F 33.1 °F 86% 30.35 in 10.0 mi SSE 5.8 mph - N/A   Mostly Cloudy
10:53 PM 37.9 °F 32.1 °F 34.0 °F 86% 30.32 in 10.0 mi SSE 8.1 mph - N/A   Overcast
11:53 PM 39.0 °F 34.8 °F 34.0 °F 82% 30.34 in 10.0 mi South 5.8 mph - N/A   Overcast
12:53 AM 39.0 °F 35.7 °F 35.1 °F 86% 30.33 in 10.0 mi South 4.6 mph - N/A   Mostly Cloudy